Zurück zum Katalog

STARLINK-6204

AktivKommunikationVLEO
NORAD 56488·PAYLOAD·🇺🇸 United States

Gestartet May 10, 2023 von Vandenberg Space Force Base

Loading…

Nächste Überflüge (nächste 24 Stunden)

TLE

AktuellSource: CelesTrak SupGP

Epoche: Sep 15, 2026, 02:18 UTC

1 56488C 23064AS  26258.09631944  .00069982  00000+0  58658-2 0  2580
2 56488  70.0018 346.9958 0003387 267.9422   8.2186 14.98287362    12

Verfolge STARLINK-6204 in Echtzeit mit AllMySat

Download on the App Store